When you browse on this site, cookies collect data to enhance your experience and personalize the content and advertising you see.
Visit our Privacy Policy to learn more. By continuing to use the site, you agree to this use of cookies and data.
  • In Lithuania
  • List of Countries
  • For 7 days
  • Water Temperature
  • Satellite Maps
  • Weather Map
  • Weather Widgets
  • user-avatar
    Login

    Hourly Weather Naftalan

    Today, 19 May, Sunday

    Time Temperature Precipitation Wind Pressure Humidity
    00:00 +21°C° 0 mm 4 mps 758 mmHg 76%
    01:00 +21°C° 0 mm 4 mps 758 mmHg 77%
    02:00 +21°C° 0 mm 3 mps 758 mmHg 78%
    03:00 +21°C° 0 mm 3 mps 758 mmHg 79%
    04:00 +21°C° 0 mm 3 mps 758 mmHg 78%
    05:00 +22°C° 0 mm 3 mps 758 mmHg 77%
    06:00 +22°C° 0 mm 3 mps 758 mmHg 76%
    07:00 +25°C° 0 mm 3 mps 758 mmHg 72%
    08:00 +26°C° 0 mm 2 mps 758 mmHg 68%
    09:00 +28°C° 0 mm 3 mps 757 mmHg 61%
    10:00 +29°C° 0 mm 3 mps 757 mmHg 57%
    11:00 +30°C° 0 mm 4 mps 757 mmHg 52%
    12:00 +32°C° 0 mm 5 mps 757 mmHg 48%
    13:00 +32°C° 0 mm 5 mps 756 mmHg 47%
    14:00 +30°C° 0 mm 5 mps 756 mmHg 46%
    15:00 +30°C° 0 mm 5 mps 756 mmHg 44%
    16:00 +29°C° 0.3 mm 5 mps 756 mmHg 49%
    17:00 +28°C° 0.3 mm 4 mps 756 mmHg 53%
    18:00 +26°C° 0.3 mm 4 mps 756 mmHg 58%
    19:00 +26°C° 0.1 mm 4 mps 756 mmHg 60%
    20:00 +25°C° 0.1 mm 3 mps 757 mmHg 63%
    21:00 +24°C° 0.1 mm 2 mps 757 mmHg 65%
    22:00 +24°C° 0.1 mm 3 mps 757 mmHg 64%
    23:00 +23°C° 0.1 mm 4 mps 758 mmHg 62%

    Tomorrow, 20 May, Monday

    Time Temperature Precipitation Wind Pressure Humidity
    00:00 +23°C° 0.1 mm 4 mps 758 mmHg 61%
    01:00 +23°C° 0 mm 5 mps 758 mmHg 66%
    02:00 +22°C° 0 mm 6 mps 758 mmHg 71%
    03:00 +22°C° 0 mm 7 mps 758 mmHg 76%
    04:00 +22°C° 0.1 mm 6 mps 758 mmHg 76%
    05:00 +22°C° 0.1 mm 5 mps 759 mmHg 75%
    06:00 +22°C° 0.1 mm 4 mps 759 mmHg 75%
    07:00 +23°C° 0 mm 5 mps 759 mmHg 69%
    08:00 +26°C° 0 mm 5 mps 760 mmHg 62%
    09:00 +27°C° 0 mm 5 mps 760 mmHg 56%
    10:00 +28°C° 0 mm 6 mps 760 mmHg 52%
    11:00 +28°C° 0 mm 7 mps 760 mmHg 48%
    12:00 +29°C° 0 mm 8 mps 760 mmHg 44%
    13:00 +29°C° 0 mm 8 mps 760 mmHg 43%
    14:00 +28°C° 0 mm 9 mps 760 mmHg 42%
    15:00 +28°C° 0 mm 9 mps 760 mmHg 41%
    16:00 +27°C° 0.3 mm 9 mps 760 mmHg 43%
    17:00 +26°C° 0.3 mm 8 mps 761 mmHg 45%
    18:00 +24°C° 0.3 mm 7 mps 761 mmHg 47%
    19:00 +23°C° 0.1 mm 7 mps 762 mmHg 48%
    20:00 +22°C° 0.1 mm 6 mps 762 mmHg 50%
    21:00 +22°C° 0.1 mm 5 mps 763 mmHg 51%
    22:00 +21°C° 0 mm 4 mps 763 mmHg 53%
    23:00 +21°C° 0 mm 4 mps 763 mmHg 55%

    Day after tomorrow, 21 May, Tuesday

    Time Temperature Precipitation Wind Pressure Humidity
    00:00 +21°C° 0 mm 3 mps 763 mmHg 58%
    01:00 +20°C° 0 mm 4 mps 763 mmHg 58%
    02:00 +20°C° 0 mm 4 mps 763 mmHg 58%
    03:00 +20°C° 0 mm 4 mps 764 mmHg 57%
    04:00 +20°C° 0 mm 5 mps 764 mmHg 56%
    05:00 +21°C° 0 mm 5 mps 765 mmHg 55%
    06:00 +21°C° 0 mm 6 mps 765 mmHg 54%
    07:00 +22°C° 0 mm 6 mps 765 mmHg 52%
    08:00 +22°C° 0 mm 6 mps 766 mmHg 50%
    09:00 +23°C° 0 mm 7 mps 766 mmHg 48%
    10:00 +24°C° 0 mm 7 mps 766 mmHg 45%
    11:00 +24°C° 0 mm 7 mps 766 mmHg 42%
    12:00 +24°C° 0 mm 7 mps 767 mmHg 40%
    13:00 +24°C° 0 mm 7 mps 767 mmHg 39%
    14:00 +24°C° 0 mm 7 mps 767 mmHg 38%
    15:00 +24°C° 0 mm 7 mps 767 mmHg 38%
    16:00 +23°C° 0 mm 7 mps 767 mmHg 40%
    17:00 +23°C° 0 mm 6 mps 767 mmHg 42%
    18:00 +22°C° 0 mm 6 mps 767 mmHg 45%
    19:00 +21°C° 0 mm 5 mps 768 mmHg 47%
    20:00 +20°C° 0 mm 3 mps 768 mmHg 49%
    21:00 +19°C° 0 mm 2 mps 769 mmHg 52%
    22:00 +19°C° 0 mm 2 mps 768 mmHg 53%
    23:00 +19°C° 0 mm 2 mps 768 mmHg 54%

    22 May, Wednesday

    Time Temperature Precipitation Wind Pressure Humidity
    00:00 +18°C° 0 mm 3 mps 768 mmHg 54%
    01:00 +18°C° 0 mm 2 mps 768 mmHg 56%
    02:00 +18°C° 0 mm 2 mps 767 mmHg 58%
    03:00 +17°C° 0 mm 2 mps 767 mmHg 60%
    04:00 +18°C° 0 mm 2 mps 767 mmHg 59%
    05:00 +18°C° 0 mm 2 mps 767 mmHg 58%
    06:00 +19°C° 0 mm 3 mps 767 mmHg 57%
    07:00 +20°C° 0 mm 2 mps 767 mmHg 52%
    08:00 +21°C° 0 mm 2 mps 767 mmHg 46%
    09:00 +23°C° 0 mm 1 mps 766 mmHg 40%
    10:00 +24°C° 0 mm 2 mps 766 mmHg 38%
    11:00 +25°C° 0 mm 2 mps 765 mmHg 35%
    12:00 +26°C° 0 mm 3 mps 764 mmHg 33%
    13:00 +26°C° 0 mm 3 mps 764 mmHg 34%
    14:00 +26°C° 0 mm 4 mps 763 mmHg 34%
    15:00 +27°C° 0 mm 4 mps 763 mmHg 35%
    16:00 +26°C° 0 mm 4 mps 762 mmHg 39%
    17:00 +25°C° 0 mm 4 mps 762 mmHg 42%
    18:00 +23°C° 0 mm 4 mps 762 mmHg 46%
    19:00 +22°C° 0 mm 4 mps 762 mmHg 51%
    20:00 +21°C° 0 mm 3 mps 762 mmHg 56%
    21:00 +21°C° 0 mm 3 mps 762 mmHg 61%
    22:00 +20°C° 0 mm 2 mps 762 mmHg 62%
    23:00 +20°C° 0 mm 2 mps 762 mmHg 63%

    23 May, Thursday

    Time Temperature Precipitation Wind Pressure Humidity
    00:00 +21°C° 0 mm 1 mps 762 mmHg 65%
    01:00 +21°C° 0 mm 1 mps 761 mmHg 63%
    02:00 +20°C° 0 mm 2 mps 761 mmHg 62%
    03:00 +20°C° 0 mm 2 mps 761 mmHg 60%
    04:00 +20°C° 0 mm 3 mps 761 mmHg 58%
    05:00 +21°C° 0 mm 3 mps 762 mmHg 56%
    06:00 +21°C° 0 mm 4 mps 762 mmHg 55%
    07:00 +23°C° 0 mm 4 mps 762 mmHg 51%
    08:00 +25°C° 0 mm 3 mps 762 mmHg 47%
    09:00 +27°C° 0 mm 3 mps 762 mmHg 43%
    10:00 +27°C° 0 mm 4 mps 762 mmHg 43%
    11:00 +27°C° 0 mm 4 mps 762 mmHg 44%
    12:00 +28°C° 0 mm 5 mps 762 mmHg 44%
    13:00 +27°C° 0 mm 5 mps 761 mmHg 46%
    14:00 +27°C° 0 mm 6 mps 761 mmHg 49%
    15:00 +26°C° 0 mm 6 mps 761 mmHg 51%
    16:00 +26°C° 0 mm 6 mps 761 mmHg 53%
    17:00 +25°C° 0 mm 5 mps 761 mmHg 55%
    18:00 +23°C° 0 mm 5 mps 762 mmHg 58%
    19:00 +23°C° 0 mm 5 mps 762 mmHg 61%
    20:00 +22°C° 0 mm 4 mps 762 mmHg 64%
    21:00 +22°C° 0 mm 4 mps 763 mmHg 67%
    22:00 +22°C° 0 mm 3 mps 763 mmHg 68%
    23:00 +22°C° 0 mm 3 mps 762 mmHg 69%

    24 May, Friday

    Time Temperature Precipitation Wind Pressure Humidity
    00:00 +21°C° 0 mm 3 mps 762 mmHg 70%
    01:00 +21°C° 0 mm 3 mps 762 mmHg 70%
    02:00 +21°C° 0 mm 2 mps 762 mmHg 70%
    03:00 +21°C° 0 mm 2 mps 762 mmHg 69%
    04:00 +21°C° 0 mm 2 mps 762 mmHg 67%
    05:00 +23°C° 0 mm 2 mps 762 mmHg 65%
    06:00 +23°C° 0 mm 1 mps 762 mmHg 63%
    07:00 +24°C° 0 mm 2 mps 763 mmHg 58%
    08:00 +25°C° 0 mm 2 mps 763 mmHg 53%
    09:00 +26°C° 0 mm 2 mps 763 mmHg 48%
    10:00 +27°C° 0 mm 3 mps 762 mmHg 46%
    11:00 +28°C° 0 mm 4 mps 762 mmHg 45%
    12:00 +28°C° 0 mm 4 mps 762 mmHg 44%
    13:00 +28°C° 0 mm 5 mps 761 mmHg 44%
    14:00 +28°C° 0 mm 5 mps 761 mmHg 45%
    15:00 +27°C° 0 mm 6 mps 761 mmHg 46%
    16:00 +27°C° 0 mm 6 mps 761 mmHg 50%
    17:00 +26°C° 0 mm 5 mps 761 mmHg 54%
    18:00 +25°C° 0 mm 5 mps 761 mmHg 58%
    19:00 +25°C° 0 mm 5 mps 761 mmHg 61%
    20:00 +23°C° 0 mm 5 mps 762 mmHg 65%
    21:00 +22°C° 0 mm 5 mps 762 mmHg 68%
    22:00 +22°C° 0 mm 4 mps 762 mmHg 70%
    23:00 +22°C° 0 mm 4 mps 762 mmHg 71%
    Show more